TimeEST,TemperatureF,Dew PointF,Humidity,Sea Level PressureIn,VisibilityMPH,Wind Direction,Wind SpeedMPH,Gust SpeedMPH,PrecipitationIn,Events,Conditions,WindDirDegrees,DateUTC
12:15 AM,23.0,6.8,50,30.30,10.0,ENE,10.4,-,N/A,,Mostly Cloudy,70,2012-12-16 05:15:00
12:35 AM,23.0,6.8,50,30.31,10.0,ENE,9.2,-,N/A,,Overcast,60,2012-12-16 05:35:00
12:55 AM,23.0,6.8,50,30.31,10.0,ENE,9.2,-,N/A,,Overcast,70,2012-12-16 05:55:00
1:15 AM,21.2,5.0,50,30.30,10.0,ENE,9.2,-,N/A,,Overcast,60,2012-12-16 06:15:00
1:55 AM,21.2,6.8,54,30.29,10.0,ENE,10.4,-,N/A,,Overcast,60,2012-12-16 06:55:00
2:15 AM,21.2,6.8,54,30.30,10.0,East,9.2,-,N/A,,Overcast,80,2012-12-16 07:15:00
2:35 AM,21.2,6.8,54,30.30,10.0,ENE,10.4,-,N/A,,Overcast,60,2012-12-16 07:35:00
2:55 AM,21.2,6.8,54,30.29,10.0,ENE,6.9,-,N/A,,Overcast,60,2012-12-16 07:55:00
3:15 AM,21.2,6.8,54,30.29,10.0,ENE,9.2,-,N/A,,Overcast,60,2012-12-16 08:15:00
3:55 AM,21.2,5.0,50,30.28,10.0,ENE,11.5,-,N/A,,Overcast,70,2012-12-16 08:55:00
4:15 AM,21.2,3.2,46,30.29,10.0,East,9.2,-,N/A,,Overcast,80,2012-12-16 09:15:00
4:35 AM,21.2,5.0,50,30.29,10.0,ENE,9.2,-,N/A,,Overcast,70,2012-12-16 09:35:00
4:55 AM,21.2,5.0,50,30.29,10.0,NE,8.1,-,N/A,,Overcast,50,2012-12-16 09:55:00
5:15 AM,21.2,3.2,46,30.29,10.0,ENE,9.2,-,N/A,,Overcast,70,2012-12-16 10:15:00
5:55 AM,21.2,5.0,50,30.29,10.0,ENE,9.2,-,N/A,,Overcast,70,2012-12-16 10:55:00
6:35 AM,21.2,5.0,50,30.29,10.0,ENE,8.1,-,N/A,,Overcast,70,2012-12-16 11:35:00
6:55 AM,21.2,5.0,50,30.29,10.0,ENE,9.2,-,N/A,,Overcast,70,2012-12-16 11:55:00
7:15 AM,21.2,3.2,46,30.28,10.0,ENE,9.2,-,N/A,,Overcast,70,2012-12-16 12:15:00
7:35 AM,21.2,3.2,46,30.28,10.0,East,9.2,-,N/A,,Overcast,80,2012-12-16 12:35:00
7:55 AM,21.2,1.4,42,30.28,10.0,East,10.4,-,N/A,,Overcast,80,2012-12-16 12:55:00
8:35 AM,21.2,1.4,42,30.29,10.0,ENE,11.5,-,N/A,,Overcast,70,2012-12-16 13:35:00
8:55 AM,21.2,1.4,42,30.29,10.0,East,9.2,-,N/A,,Overcast,80,2012-12-16 13:55:00
9:15 AM,21.2,1.4,42,30.30,10.0,East,8.1,-,N/A,,Overcast,80,2012-12-16 14:15:00
10:15 AM,21.2,5.0,50,30.29,10.0,ENE,9.2,-,N/A,,Overcast,70,2012-12-16 15:15:00
10:35 AM,21.2,5.0,50,30.28,10.0,ENE,9.2,-,N/A,,Overcast,70,2012-12-16 15:35:00
10:55 AM,21.2,6.8,54,30.27,10.0,ENE,8.1,-,N/A,,Overcast,60,2012-12-16 15:55:00
11:15 AM,21.2,6.8,54,30.26,10.0,ENE,9.2,-,N/A,,Overcast,70,2012-12-16 16:15:00
11:35 AM,21.2,6.8,54,30.25,10.0,ENE,10.4,-,N/A,,Overcast,60,2012-12-16 16:35:00
11:55 AM,21.2,8.6,58,30.24,7.0,ENE,11.5,-,N/A,,Overcast,70,2012-12-16 16:55:00
12:15 PM,21.2,10.4,63,30.23,10.0,ENE,9.2,-,N/A,,Overcast,70,2012-12-16 17:15:00
12:35 PM,21.2,10.4,63,30.23,7.0,ENE,9.2,-,N/A,,Overcast,60,2012-12-16 17:35:00
12:55 PM,21.2,10.4,63,30.22,4.0,ENE,8.1,-,N/A,,Overcast,60,2012-12-16 17:55:00
1:15 PM,21.2,12.2,68,30.21,3.0,ENE,9.2,-,N/A,,Overcast,60,2012-12-16 18:15:00
1:35 PM,21.2,12.2,68,30.21,1.2,ENE,9.2,-,N/A,,Overcast,60,2012-12-16 18:35:00
1:55 PM,21.2,15.8,80,30.20,1.5,ENE,10.4,-,N/A,,Overcast,60,2012-12-16 18:55:00
2:15 PM,21.2,14.0,74,30.19,2.5,East,13.8,-,N/A,,Overcast,80,2012-12-16 19:15:00
2:35 PM,21.2,15.8,80,30.19,3.0,East,11.5,-,N/A,,Overcast,80,2012-12-16 19:35:00
2:55 PM,21.2,15.8,80,30.18,3.0,East,11.5,-,N/A,,Mostly Cloudy,80,2012-12-16 19:55:00
3:15 PM,21.2,15.8,80,30.18,2.0,East,10.4,-,N/A,,Overcast,80,2012-12-16 20:15:00
3:35 PM,21.2,15.8,80,30.18,2.5,East,8.1,-,N/A,,Overcast,90,2012-12-16 20:35:00
3:55 PM,21.2,15.8,80,30.17,2.5,ENE,6.9,-,N/A,,Overcast,70,2012-12-16 20:55:00
4:15 PM,21.2,15.8,80,30.17,2.5,ENE,10.4,-,N/A,,Overcast,60,2012-12-16 21:15:00
4:35 PM,21.2,15.8,80,30.17,4.0,ENE,8.1,-,N/A,,Overcast,60,2012-12-16 21:35:00
5:15 PM,21.2,15.8,80,30.16,5.0,ENE,12.7,-,N/A,,Overcast,60,2012-12-16 22:15:00
5:35 PM,21.2,15.8,80,30.16,6.0,ENE,11.5,-,N/A,,Overcast,70,2012-12-16 22:35:00
5:55 PM,21.2,15.8,80,30.16,2.5,ENE,10.4,-,N/A,,Overcast,70,2012-12-16 22:55:00
6:15 PM,21.2,15.8,80,30.16,3.0,ENE,9.2,-,N/A,,Overcast,70,2012-12-16 23:15:00
6:35 PM,21.2,15.8,80,30.16,2.5,ENE,11.5,-,N/A,,Overcast,70,2012-12-16 23:35:00
6:55 PM,21.2,15.8,80,30.15,2.5,ENE,12.7,-,N/A,,Overcast,70,2012-12-16 23:55:00
7:15 PM,21.2,15.8,80,30.15,3.0,ENE,13.8,-,N/A,,Overcast,70,2012-12-17 00:15:00
7:35 PM,21.2,15.8,80,30.15,5.0,East,12.7,-,N/A,,Overcast,80,2012-12-17 00:35:00
7:55 PM,21.2,15.8,80,30.15,6.0,ENE,10.4,-,N/A,,Overcast,70,2012-12-17 00:55:00
8:15 PM,21.2,15.8,80,30.15,7.0,ENE,9.2,-,N/A,,Overcast,60,2012-12-17 01:15:00
8:35 PM,21.2,15.8,80,30.14,9.0,ENE,11.5,-,N/A,,Overcast,60,2012-12-17 01:35:00
8:55 PM,21.2,17.6,86,30.15,8.0,NE,12.7,-,N/A,,Overcast,50,2012-12-17 01:55:00
9:15 PM,21.2,17.6,86,30.14,5.0,ENE,9.2,-,N/A,,Overcast,60,2012-12-17 02:15:00
9:35 PM,21.2,17.6,86,30.14,8.0,ENE,15.0,-,N/A,,Overcast,70,2012-12-17 02:35:00
9:55 PM,21.2,17.6,86,30.14,8.0,East,11.5,-,N/A,,Overcast,90,2012-12-17 02:55:00
10:15 PM,21.2,17.6,86,30.14,6.0,East,12.7,-,N/A,,Overcast,80,2012-12-17 03:15:00
10:35 PM,21.2,17.6,86,30.14,3.0,East,12.7,-,N/A,,Overcast,80,2012-12-17 03:35:00
10:55 PM,21.2,17.6,86,30.14,4.0,East,11.5,-,N/A,,Overcast,80,2012-12-17 03:55:00
11:35 PM,21.2,17.6,86,30.13,2.0,East,11.5,-,N/A,,Overcast,80,2012-12-17 04:35:00
11:55 PM,21.2,17.6,86,30.12,5.0,ENE,12.7,-,N/A,,Overcast,70,2012-12-17 04:55:00